Location: Clermont
(50.2608°N, 4.3172°E)
Time: 03:31:47
(UTC+00:00)

Helios 1A - Pass Details

Date: 13 August 2020
Orbit: 588 x 599 km, 98.2° (Epoch: 06 September)

Event Time Altitude Azimuth Distance (km) Brightness Sun altitude
Exits shadow 22:59:34 35° 70° (ENE) 973 4.0 -24.6°
Maximum altitude 22:59:41 35° 67° (ENE) 972 4.1 -24.6°
Drops below altitude 10° 23:03:33 10° 1° (N) 1,953 6.6 -24.7°
Sets 23:05:51 0° 353° (N) 2,861 7.9 -24.8°
